Tracking 20241 objects as of 25-Jan-2020
HD Live streaming from Space Station
objects crossing your sky now


NORAD ID:
Int'l Code:
Perigee: 305.5 km
Apogee: 311.0 km
Inclination: 53.0 °
Period: 90.5 minutes
Semi major axis: 6679 km
RCS: Unknown
Launch date: January 1, 1970
Source: ()
Launch site: ()
aabbcc
Your satellite tracking list
Your tracking list is empty




NASA's NSSDC Master Catalog

Two Line Element Set (TLE):
1 70000U 20001A   20012.19310071 -.01073415  00000-0 -36067-2 0   123
2 70000  52.9993  11.9455 0004107 242.8267 253.8457 15.90409091    10
Source of the keplerian elements: